Tracking 30995 objects as of 5-Jul-2025
HD Live streaming from Space Station
objects crossing your sky now

STARLINK-32475

Track STARLINK-32475 now!
10-day predictions
STARLINK-32475 is classified as:


NORAD ID: 61728
Int'l Code: 2024-196X
Perigee: 481.5 km
Apogee: 483.2 km
Inclination: 53.2 °
Period: 94.1 minutes
Semi major axis: 6853 km
RCS: Unknown
Launch date: October 30, 2024
Source: United States (US)
Launch site: AIR FORCE EASTERN TEST RANGE (AFETR)
Your satellite tracking list
Your tracking list is empty




NASA's NSSDC Master Catalog

Two Line Element Set (TLE):
1 61728U 24196X   25186.25102099 -.00000971  00000-0 -20657-4 0  9999
2 61728  53.1596 170.5922 0001208  89.0333 271.0806 15.30193046 39275
Source of the keplerian elements: AFSPC